オダス彗星

198P/ODAS (1998)

English version
Home page
Total 6,336 html files since Dec. 4, 1995
Updated on April 6, 2008

---------------------------------------------------------------------

・ プロフィール

符号 198P/1998 X1
発見日 1998年12月15日
発見光度 18.3等
発見者 Observatoire de la Cote d'Azur-Deutsches Zentrum fur Luft und Raumfahrt Asteroid Survey (ODAS)

・ 写真集

・ 軌道要素

Epoch 1998 July 6.0 TT = JDT 2451000.5
T 1998 July 20.93950 TT                                 MPC
q   1.9742561            (2000.0)            P               Q
n   0.14567569     Peri.   68.72718     +0.38059043     -0.92474360
a   3.5772118      Node   358.90225     +0.83945094     +0.34569206
e   0.4481020      Incl.    1.35186     +0.38790855     +0.15920516
P   6.77

The resulting nongravitational parameters are A1 = -2.79 +/- 0.27, A2 = 
+1.1966 +/- 0.2612, A3 = -2.2588 +/- 0.0268.

・ 星図

・ 光度変化

        m1 = 14.5 + 5 logΔ + 10 log r(t - 200)

---------------------------------------------------------------------

軌道要素はM.P.E.C. 2008-G10に掲載されたものです。
星図は StellaNavigator Ver.2.0 for Windows (アストロアーツ 編著 / アスキー出版局刊) で作成したものです。
光度グラフはComet for Windowsで作成したものです。

---------------------------------------------------------------------

Copyright(C) 1995-2008 Seiichi Yoshida (comet@aerith.net). All rights reserved.